| time (UTC) | temp F | wind direction | speed MPH | gust MPH | rain 1hr in | rain 24hr in | rain mn in | humidity % | barometer mb |
| 20260503203007 | 62 | 269 | 4.0 | 0.0 | 0.00 | 0.00 | 0.00 | 32 | 1010.1 |
| 20260503201509 | 63 | 325 | 1.0 | 0.0 | 0.00 | 0.00 | 0.00 | 35 | 1010.0 |
| 20260503200007 | 61 | 264 | 2.0 | 0.0 | 0.00 | 0.00 | 0.00 | 39 | 1010.2 |
| 20260503194505 | 62 | 290 | 2.0 | 0.0 | 0.00 | 0.00 | 0.00 | 35 | 1010.3 |
| 20260503193003 | 62 | 291 | 3.0 | 0.0 | 0.00 | 0.00 | 0.00 | 36 | 1010.4 |
| 20260503191509 | 62 | 285 | 3.0 | 0.0 | 0.00 | 0.00 | 0.00 | 37 | 1010.6 |
| 20260503190059 | 61 | 309 | 1.0 | 0.0 | 0.00 | 0.00 | 0.00 | 40 | 1010.8 |
| 20260503184605 | 59 | 294 | 4.0 | 0.0 | 0.00 | 0.00 | 0.00 | 42 | 1010.8 |
| 20260503183057 | 58 | 280 | 4.0 | 0.0 | 0.00 | 0.00 | 0.00 | 40 | 1010.9 |
| 20260503181602 | 58 | 286 | 3.0 | 0.0 | 0.00 | 0.00 | 0.00 | 41 | 1011.0 |
| 20260503180111 | 60 | 311 | 2.0 | 0.0 | 0.00 | 0.00 | 0.00 | 40 | 1011.1 |
| 20260503174555 | 59 | 301 | 3.0 | 0.0 | 0.00 | 0.00 | 0.00 | 40 | 1011.2 |
| 20260503173105 | 60 | 211 | 3.0 | 0.0 | 0.00 | 0.00 | 0.00 | 40 | 1011.2 |
| 20260503171554 | 58 | 252 | 2.0 | 0.0 | 0.00 | 0.00 | 0.00 | 43 | 1011.1 |
| 20260503160104 | 56 | 240 | 2.0 | 0.0 | 0.00 | 0.00 | 0.00 | 44 | 1011.4 |
| 20260503081559 | 46 | 296 | 0.0 | 0.0 | 0.00 | 0.00 | 0.00 | 63 | 1008.5 |
| 20260503071556 | 48 | 304 | 0.0 | 0.0 | 0.00 | 0.00 | 0.00 | 59 | 1008.7 |
| 20260503060108 | 50 | 317 | 0.0 | 0.0 | 0.00 | 0.00 | 0.00 | 58 | 1008.8 |
| 20260503054542 | 50 | 309 | 0.0 | 0.0 | 0.00 | 0.00 | 0.00 | 58 | 1009.0 |
| 20260503053041 | 50 | 315 | 0.0 | 0.0 | 0.00 | 0.00 | 0.00 | 58 | 1009.2 |
| 20260503051540 | 50 | 311 | 0.0 | 0.0 | 0.00 | 0.00 | 0.00 | 58 | 1009.0 |
| 20260503050039 | 50 | 321 | 0.0 | 0.0 | 0.00 | 0.00 | 0.00 | 60 | 1009.1 |
| 20260503044536 | 50 | 315 | 0.0 | 0.0 | 0.00 | 0.00 | 0.00 | 62 | 1009.4 |
| 20260503043041 | 49 | 282 | 0.0 | 0.0 | 0.00 | 0.00 | 0.00 | 62 | 1009.5 |
| 20260503041533 | 49 | 290 | 0.0 | 0.0 | 0.00 | 0.00 | 0.00 | 64 | 1009.7 |
| 20260503040031 | 49 | 281 | 0.0 | 0.0 | 0.00 | 0.00 | 0.00 | 64 | 1009.7 |
| 20260503034526 | 49 | 327 | 0.0 | 0.0 | 0.00 | 0.00 | 0.00 | 64 | 1009.4 |
| 20260503033030 | 49 | 340 | 0.0 | 0.0 | 0.00 | 0.00 | 0.00 | 64 | 1009.6 |
| 20260503031518 | 49 | 342 | 0.0 | 0.0 | 0.00 | 0.00 | 0.00 | 64 | 1009.7 |
| 20260503030013 | 49 | 341 | 0.0 | 0.0 | 0.00 | 0.00 | 0.00 | 63 | 1009.4 |
| 20260503024521 | 49 | 341 | 0.0 | 0.0 | 0.00 | 0.00 | 0.00 | 57 | 1009.4 |
| 20260503023004 | 49 | 17 | 0.0 | 0.0 | 0.00 | 0.00 | 0.00 | 36 | 1009.5 |
| 20260503021604 | 49 | 130 | 0.0 | 0.0 | 0.00 | 0.00 | 0.00 | 21 | 1009.7 |
| 20260503020101 | 49 | 130 | 0.0 | 0.0 | 0.00 | 0.00 | 0.00 | 17 | 1009.5 |
| 20260503014557 | 50 | 130 | 0.0 | 0.0 | 0.00 | 0.00 | 0.00 | 16 | 1009.7 |
| 20260503013047 | 50 | 128 | 0.0 | 0.0 | 0.00 | 0.00 | 0.00 | 20 | 1009.8 |
| 20260503011542 | 51 | 128 | 0.0 | 0.0 | 0.00 | 0.00 | 0.00 | 30 | 1009.8 |
| 20260503010039 | 51 | 128 | 0.0 | 0.0 | 0.00 | 0.00 | 0.00 | 39 | 1009.5 |
| 20260503004538 | 52 | 128 | 0.0 | 0.0 | 0.00 | 0.00 | 0.00 | 47 | 1009.2 |
| 20260503003044 | 53 | 128 | 0.0 | 0.0 | 0.00 | 0.00 | 0.00 | 52 | 1009.1 |
| 20260503001526 | 54 | 128 | 0.0 | 0.0 | 0.00 | 0.00 | 0.00 | 56 | 1009.0 |
| 20260503000021 | 54 | 128 | 0.0 | 0.0 | 0.00 | 0.00 | 0.00 | 59 | 1009.1 |
| 20260502234517 | 55 | 128 | 0.0 | 0.0 | 0.00 | 0.00 | 0.00 | 62 | 1009.0 |
| 20260502233012 | 56 | 128 | 0.0 | 0.0 | 0.00 | 0.00 | 0.00 | 64 | 1009.1 |
| 20260502231514 | 57 | 128 | 0.0 | 0.0 | 0.00 | 0.00 | 0.00 | 64 | 1009.0 |
| 20260502230005 | 58 | 128 | 0.0 | 0.0 | 0.00 | 0.00 | 0.00 | 65 | 1009.1 |
| 20260502224559 | 58 | 91 | 0.0 | 0.0 | 0.00 | 0.00 | 0.00 | 64 | 1008.8 |
| 20260502223055 | 59 | 64 | 0.0 | 0.0 | 0.00 | 0.00 | 0.00 | 65 | 1008.8 |
| 20260502221550 | 59 | 78 | 0.0 | 0.0 | 0.00 | 0.00 | 0.00 | 64 | 1008.8 |
| 20260502220047 | 59 | 88 | 1.0 | 0.0 | 0.00 | 0.00 | 0.00 | 64 | 1008.5 |
| 20260502214541 | 60 | 77 | 0.0 | 0.0 | 0.00 | 0.00 | 0.00 | 63 | 1008.8 |
| 20260502213054 | 60 | 96 | 0.0 | 0.0 | 0.00 | 0.00 | 0.00 | 63 | 1008.7 |
| 20260502211534 | 60 | 99 | 0.0 | 0.0 | 0.00 | 0.00 | 0.00 | 63 | 1008.7 |
| 20260502210029 | 61 | 85 | 1.0 | 0.0 | 0.00 | 0.00 | 0.00 | 62 | 1008.4 |
| 20260502204533 | 63 | 259 | 1.0 | 0.0 | 0.00 | 0.00 | 0.00 | 47 | 1008.4 |